EW4582 Weather Reports


time (UTC)temp
C
wind
direction
speed
KPH
gust
KPH
rain 1hr
cm
rain 24hr
cm
rain mn
cm
humidity
%
barometer
mb
20260506094809 11 359 0.0 0.0 0.00 0.00 0.00 98 1020.8
20260506094308 11 29 0.0 0.0 0.00 0.00 0.00 98 1020.8
20260506093806 11 29 0.0 0.0 0.00 0.00 0.00 98 1020.8
20260506093302 11 29 0.0 0.0 0.00 0.00 0.00 97 1020.8
20260506092801 11 29 0.0 0.0 0.00 0.00 0.00 97 1020.8
20260506092258 11 29 0.0 0.0 0.00 0.00 0.00 97 1020.8
20260506091755 11 29 0.0 0.0 0.00 0.00 0.00 97 1020.8
20260506091252 11 29 0.0 0.0 0.00 0.00 0.00 97 1020.5
20260506090750 11 29 0.0 0.0 0.00 0.00 0.00 97 1020.8
20260506090247 11 29 0.0 0.0 0.00 0.00 0.00 97 1020.5
20260506085744 11 29 0.0 0.0 0.00 0.00 0.00 97 1020.8
20260506085240 10 29 0.0 0.0 0.00 0.00 0.00 97 1020.8
20260506084736 11 29 0.0 0.0 0.00 0.00 0.00 97 1020.5
20260506084232 11 29 0.0 0.0 0.00 0.00 0.00 97 1020.5
20260506083730 11 29 0.0 0.0 0.00 0.00 0.00 97 1020.5
20260506083222 10 29 0.0 0.0 0.00 0.00 0.00 96 1020.8
20260506082719 11 29 0.0 0.0 0.00 0.00 0.00 96 1020.5
20260506082215 11 29 0.0 0.0 0.00 0.00 0.00 96 1020.5
20260506081713 11 29 0.0 0.0 0.00 0.00 0.00 96 1020.8
20260506081210 11 29 0.0 0.0 0.00 0.00 0.00 96 1020.2
20260506080708 10 29 0.0 0.0 0.00 0.00 0.00 96 1020.8
20260506080204 11 29 0.0 0.0 0.00 0.00 0.00 96 1020.5
20260506073148 11 29 0.0 0.0 0.00 0.00 0.00 94 1020.5
20260506072644 11 29 0.0 0.0 0.00 0.00 0.00 94 1020.5
20260506072143 11 29 0.0 0.0 0.00 0.00 0.00 94 1020.2
20260506071640 11 29 0.0 0.0 0.00 0.00 0.00 94 1020.5
20260506071137 11 29 0.0 0.0 0.00 0.00 0.00 94 1020.5
20260506070634 11 29 0.0 0.0 0.00 0.00 0.00 93 1020.5
20260506070131 11 29 0.0 0.0 0.00 0.00 0.00 93 1020.2
20260506062109 12 29 0.0 0.0 0.00 0.00 0.00 91 1020.2
20260506061604 12 29 0.0 0.0 0.00 0.00 0.00 91 1020.2
20260506061102 12 29 0.0 0.0 0.00 0.00 0.00 91 1020.2
20260506060601 13 29 0.0 0.0 0.00 0.00 0.00 91 1020.2
20260506051029 13 29 0.0 0.0 0.00 0.00 0.00 88 1019.8
20260506050527 13 29 0.0 0.0 0.00 0.00 0.00 88 1019.8
20260506045018 13 29 0.0 0.0 0.00 0.00 0.00 88 1019.5
20260506044516 13 29 0.0 0.0 0.00 0.00 0.00 88 1019.8
20260506044012 13 29 0.0 0.0 0.00 0.00 0.00 88 1019.8
20260506043509 13 29 0.0 0.0 0.00 0.00 0.00 88 1019.5
20260506043008 13 29 0.0 0.0 0.00 0.00 0.00 88 1019.5
20260506042506 13 29 0.0 0.0 0.00 0.00 0.00 88 1019.5
20260506042004 13 29 0.0 0.0 0.00 0.00 0.00 88 1019.5
20260506041502 13 29 0.0 0.0 0.00 0.00 0.00 88 1019.5
20260506040959 13 29 0.0 0.0 0.00 0.00 0.00 88 1019.5
20260506040456 13 29 0.0 0.0 0.00 0.00 0.00 88 1019.5
20260506035952 13 29 0.0 0.0 0.00 0.00 0.00 88 1019.5
20260506035450 13 29 0.0 0.0 0.00 0.00 0.00 88 1019.5
20260506034946 13 29 0.0 0.0 0.00 0.00 0.00 88 1019.2
20260506034443 13 29 0.0 0.0 0.00 0.00 0.00 88 1019.2
20260506033940 13 29 0.0 0.0 0.00 0.00 0.00 87 1019.2
20260506033438 13 29 0.0 0.0 0.00 0.00 0.00 87 1018.8
20260506032934 13 30 0.0 0.0 0.00 0.00 0.00 87 1018.8
20260506032432 13 29 0.0 0.0 0.00 0.00 0.00 88 1018.8
20260506031928 13 30 0.0 0.0 0.00 0.00 0.00 87 1018.8
20260506031425 13 30 0.0 0.0 0.00 0.00 0.00 87 1018.5
20260506030923 13 29 0.0 0.0 0.00 0.00 0.00 87 1018.5
20260506030421 13 31 0.0 0.0 0.00 0.00 0.00 87 1018.5
20260506025917 13 56 0.0 0.0 0.00 0.00 0.00 87 1018.5
20260506025415 13 56 0.0 0.0 0.00 0.00 0.00 86 1018.1
20260506024911 13 18 0.0 1.6 0.00 0.00 0.00 86 1018.5
20260506024408 13 18 0.0 1.6 0.00 0.00 0.00 86 1018.8
20260506023904 13 27 0.0 0.0 0.00 0.00 0.00 86 1018.5
20260506023401 13 24 1.6 1.6 0.00 0.00 0.00 86 1018.8
20260506022857 13 11 1.6 3.2 0.00 0.00 0.00 86 1018.5
20260506022355 13 12 0.0 0.0 0.00 0.00 0.00 86 1018.5
20260506021853 13 20 0.0 1.6 0.00 0.00 0.00 85 1018.5
20260506021350 13 19 0.0 1.6 0.00 0.00 0.00 85 1018.8
20260506020846 13 33 0.0 1.6 0.00 0.00 0.00 84 1018.5
20260506020345 14 32 0.0 0.0 0.00 0.00 0.00 83 1018.5
20260506015842 14 32 0.0 0.0 0.00 0.00 0.00 83 1018.1
20260506015339 14 47 0.0 0.0 0.00 0.00 0.00 82 1018.5
20260506014836 14 40 0.0 1.6 0.00 0.00 0.00 82 1018.5
20260506014333 14 43 0.0 0.0 0.00 0.00 0.00 82 1018.1
20260506013829 14 27 0.0 1.6 0.00 0.00 0.00 81 1018.1
20260506013327 14 29 0.0 0.0 0.00 0.00 0.00 81 1018.5
20260506012823 14 348 0.0 1.6 0.00 0.00 0.00 80 1018.5
20260506012320 15 43 0.0 0.0 0.00 0.00 0.00 79 1018.5
20260506011818 15 16 0.0 1.6 0.00 0.00 0.00 79 1018.1
20260506011314 15 30 0.0 0.0 0.00 0.00 0.00 78 1018.1
20260506010812 15 13 1.6 1.6 0.00 0.00 0.00 77 1018.1
20260506010309 15 14 1.6 1.6 0.00 0.00 0.00 77 1018.5
20260506005806 15 24 0.0 1.6 0.00 0.00 0.00 77 1018.5
20260506005305 15 356 1.6 1.6 0.00 0.00 0.00 79 1018.1
20260506004759 15 36 0.0 1.6 0.00 0.00 0.00 78 1018.1
20260506004257 15 28 0.0 1.6 0.00 0.00 0.00 79 1018.1
20260506003752 15 77 0.0 0.0 0.00 0.00 0.00 79 1018.1
20260506003249 15 82 0.0 1.6 0.00 0.00 0.00 79 1018.1
20260506002745 15 29 0.0 1.6 0.00 0.00 0.00 79 1018.1
20260506002241 15 52 0.0 0.0 0.00 0.00 0.00 78 1018.5
20260506001737 16 108 0.0 1.6 0.00 0.00 0.00 77 1018.5
20260506001235 16 69 0.0 0.0 0.00 0.00 0.00 76 1018.1
20260506000732 15 137 0.0 0.0 0.00 0.00 0.00 77 1017.8
20260506000229 16 8 1.6 3.2 0.00 0.00 0.00 75 1018.1
20260505235726 16 26 0.0 0.0 0.00 0.00 0.00 76 1018.1
20260505235224 15 37 0.0 0.0 0.00 0.00 0.00 76 1018.1
20260505234721 15 354 1.6 1.6 0.00 0.00 0.00 75 1018.1
20260505234218 16 18 1.6 3.2 0.00 0.00 0.00 74 1018.1
20260505233714 16 40 0.0 1.6 0.00 0.00 0.00 74 1018.1
20260505233213 16 301 1.6 3.2 0.00 0.00 0.00 73 1018.1
20260505232709 16 85 0.0 0.0 0.00 0.00 0.00 72 1018.1
20260505232207 16 11 1.6 1.6 0.00 0.00 0.00 71 1018.1
20260505231703 16 355 1.6 1.6 0.00 0.00 0.00 72 1018.1
20260505231203 16 7 0.0 1.6 0.00 0.00 0.00 70 1018.1
20260505230700 16 38 1.6 3.2 0.00 0.00 0.00 71 1018.1
20260505230156 16 29 0.0 0.0 0.00 0.00 0.00 71 1018.1
20260505225653 17 292 0.0 0.0 0.00 0.00 0.00 71 1018.1
20260505225149 18 19 0.0 0.0 0.00 0.00 0.00 71 1018.1
20260505224645 17 30 1.6 3.2 0.00 0.00 0.00 69 1018.1
20260505224143 18 5 0.0 0.0 0.00 0.00 0.00 70 1018.5
20260505223641 17 0 1.6 1.6 0.00 0.00 0.00 71 1018.1
20260505223136 17 14 0.0 0.0 0.00 0.00 0.00 71 1018.5
20260505222632 16 38 1.6 3.2 0.00 0.00 0.00 73 1018.5
20260505222129 16 329 1.6 1.6 0.00 0.00 0.00 73 1018.5
20260505221626 16 26 1.6 1.6 0.00 0.00 0.00 74 1018.5
20260505221122 16 4 1.6 1.6 0.00 0.00 0.00 76 1018.5
20260505220620 16 249 0.0 1.6 0.00 0.00 0.00 76 1018.5
20260505220118 16 358 0.0 1.6 0.00 0.00 0.00 75 1018.5
20260505215615 16 49 3.2 3.2 0.00 0.00 0.00 75 1018.5
20260505215113 15 329 1.6 3.2 0.00 0.00 0.00 77 1018.5
20260505214611 15 54 0.0 0.0 0.00 0.00 0.00 78 1018.5
20260505214108 15 67 0.0 0.0 0.00 0.00 0.00 78 1018.5
20260505213605 15 341 1.6 1.6 0.00 0.00 0.00 79 1018.8
20260505213101 16 106 0.0 1.6 0.00 0.00 0.00 77 1018.5
20260505212552 15 352 0.0 1.6 0.00 0.00 0.00 78 1018.8
20260505212050 15 46 0.0 0.0 0.00 0.00 0.00 77 1018.8
20260505211546 15 48 0.0 0.0 0.00 0.00 0.00 77 1018.8
20260505211043 15 341 0.0 0.0 0.00 0.00 0.00 76 1018.5
20260505210540 15 359 1.6 1.6 0.00 0.00 0.00 76 1018.5
20260505210037 15 26 0.0 1.6 0.00 0.00 0.00 75 1018.5
20260505205535 16 46 0.0 1.6 0.00 0.00 0.00 75 1018.5
20260505205032 15 357 1.6 3.2 0.00 0.00 0.00 76 1018.5
20260505204530 15 73 0.0 0.0 0.00 0.00 0.00 77 1018.8
20260505204027 15 357 0.0 1.6 0.00 0.00 0.00 76 1018.5
20260505203523 15 24 0.0 0.0 0.00 0.00 0.00 76 1018.5
20260505203021 15 281 0.0 0.0 0.00 0.00 0.00 77 1018.5
20260505202516 15 16 0.0 0.0 0.00 0.00 0.00 77 1018.8
20260505202012 15 26 0.0 1.6 0.00 0.00 0.00 76 1018.8
20260505201510 15 43 0.0 0.0 0.00 0.00 0.00 78 1018.8
20260505201007 15 331 3.2 3.2 0.00 0.00 0.00 75 1018.8
20260505200505 16 28 0.0 0.0 0.00 0.00 0.00 74 1018.5
20260505200001 15 3 0.0 0.0 0.00 0.00 0.00 74 1018.5
20260505195458 15 54 0.0 1.6 0.00 0.00 0.00 74 1018.5
20260505194955 16 83 0.0 0.0 0.00 0.00 0.00 74 1018.5
20260505194453 15 63 0.0 0.0 0.00 0.00 0.00 76 1018.8
20260505193952 15 72 0.0 1.6 0.00 0.00 0.00 77 1018.5
20260505193450 15 8 0.0 1.6 0.00 0.00 0.00 76 1018.8
20260505192947 15 46 0.0 0.0 0.00 0.00 0.00 77 1018.8
20260505192446 15 355 0.0 0.0 0.00 0.00 0.00 77 1018.8
20260505191943 15 45 0.0 0.0 0.00 0.00 0.00 76 1018.8
20260505191442 15 340 0.0 0.0 0.00 0.00 0.00 77 1019.2
20260505190938 15 30 1.6 1.6 0.00 0.00 0.00 77 1018.8
20260505190433 15 79 1.6 1.6 0.00 0.00 0.00 77 1019.2
20260505185929 15 1 1.6 3.2 0.00 0.00 0.00 78 1019.2
20260505185427 15 70 1.6 1.6 0.00 0.00 0.00 78 1018.8
20260505184923 15 52 0.0 0.0 0.00 0.00 0.00 80 1018.8
20260505184420 15 80 0.0 0.0 0.00 0.00 0.00 79 1018.8
20260505183916 15 41 0.0 0.0 0.00 0.00 0.00 79 1018.8
20260505183413 15 330 0.0 0.0 0.00 0.00 0.00 79 1018.8
20260505182910 15 26 0.0 1.6 0.00 0.00 0.00 80 1018.8
20260505182407 15 32 0.0 0.0 0.00 0.00 0.00 79 1018.5
20260505181903 15 26 1.6 1.6 0.00 0.00 0.00 79 1018.8
20260505181401 15 9 0.0 0.0 0.00 0.00 0.00 79 1018.5
20260505180857 15 356 3.2 4.8 0.00 0.00 0.00 78 1018.5
20260505180354 15 36 0.0 0.0 0.00 0.00 0.00 78 1018.5
20260505175850 15 328 1.6 1.6 0.00 0.00 0.00 78 1018.5
20260505175347 15 320 0.0 0.0 0.00 0.00 0.00 79 1018.5
20260505174843 15 36 0.0 1.6 0.00 0.00 0.00 79 1018.5
20260505174341 14 53 0.0 0.0 0.00 0.00 0.00 79 1018.5
20260505173836 14 48 0.0 0.0 0.00 0.00 0.00 80 1018.1
20260505173333 13 37 0.0 0.0 0.00 0.00 0.00 80 1018.1
20260505172830 13 40 0.0 0.0 0.00 0.00 0.00 80 1018.1
20260505172328 13 40 0.0 0.0 0.00 0.00 0.00 82 1018.1
20260505171827 13 40 0.0 0.0 0.00 0.00 0.00 82 1018.5
20260505171325 13 40 0.0 0.0 0.00 0.00 0.00 83 1018.5
20260505170821 13 40 0.0 0.0 0.00 0.00 0.00 83 1018.5
20260505170318 13 40 0.0 0.0 0.00 0.00 0.00 83 1018.5
20260505165814 13 51 0.0 0.0 0.00 0.00 0.00 83 1018.5
20260505165309 13 51 0.0 0.0 0.00 0.00 0.00 82 1018.5
20260505164805 13 51 0.0 0.0 0.00 0.00 0.00 84 1018.1
20260505164303 13 56 0.0 1.6 0.00 0.00 0.00 84 1018.1
20260505163801 13 61 0.0 0.0 0.00 0.00 0.00 85 1017.8
20260505163259 13 52 0.0 0.0 0.00 0.00 0.00 84 1017.8
20260505162756 13 52 0.0 0.0 0.00 0.00 0.00 84 1017.8
20260505162253 13 68 0.0 0.0 0.00 0.00 0.00 84 1017.8
20260505161750 13 41 0.0 0.0 0.00 0.00 0.00 84 1017.8
20260505161247 13 41 0.0 0.0 0.00 0.00 0.00 84 1017.8
20260505160744 13 41 0.0 0.0 0.00 0.00 0.00 83 1017.8
20260505160242 13 41 0.0 0.0 0.00 0.00 0.00 83 1017.5
20260505153221 13 41 0.0 0.0 0.00 0.00 0.00 84 1017.5
20260505152718 13 41 0.0 0.0 0.00 0.00 0.00 84 1017.5
20260505152214 13 40 0.0 0.0 0.00 0.00 0.00 83 1017.8
20260505151709 13 41 0.0 0.0 0.00 0.00 0.00 83 1017.5
20260505151207 13 47 0.0 0.0 0.00 0.00 0.00 82 1017.5
20260505150703 13 46 0.0 0.0 0.00 0.00 0.00 81 1017.5
20260505150201 13 47 0.0 0.0 0.00 0.00 0.00 82 1017.5
20260505140633 11 37 0.0 0.0 0.00 0.00 0.00 91 1016.8
20260505140131 11 37 0.0 0.0 0.00 0.00 0.00 91 1017.1
20260505124543 10 37 0.0 0.0 0.00 0.00 0.00 91 1016.8
20260505124040 10 37 0.0 0.0 0.00 0.00 0.00 91 1016.8
20260505123536 11 37 0.0 0.0 0.00 0.00 0.00 91 1017.1
20260505123033 10 37 0.0 0.0 0.00 0.00 0.00 91 1016.8
20260505122530 11 37 0.0 0.0 0.00 0.00 0.00 91 1016.8
20260505122027 11 37 0.0 0.0 0.00 0.00 0.00 91 1017.1
20260505121523 11 37 0.0 0.0 0.00 0.00 0.00 91 1016.8
20260505121020 11 37 0.0 0.0 0.00 0.00 0.00 91 1016.8
20260505120516 11 37 0.0 0.0 0.00 0.00 0.00 91 1016.8
20260505120011 11 37 0.0 0.0 0.00 0.00 0.00 91 1016.8
20260505115506 11 37 0.0 0.0 0.00 0.00 0.00 91 1016.8
20260505115004 11 37 0.0 0.0 0.00 0.00 0.00 90 1016.8
20260505114501 11 37 0.0 0.0 0.00 0.00 0.00 90 1016.8
20260505113958 11 37 0.0 0.0 0.00 0.00 0.00 90 1016.8
20260505113454 11 37 0.0 0.0 0.00 0.00 0.00 90 1016.4
20260505112949 11 37 0.0 0.0 0.00 0.00 0.00 90 1016.4
20260505112442 11 37 0.0 0.0 0.00 0.00 0.00 90 1016.8
20260505111938 11 37 0.0 0.0 0.00 0.00 0.00 90 1016.8
20260505111432 11 37 0.0 0.0 0.00 0.00 0.00 90 1016.8
20260505110929 11 37 0.0 0.0 0.00 0.00 0.00 90 1016.8
20260505110426 11 37 0.0 0.0 0.00 0.00 0.00 90 1016.8
20260505101857 11 37 0.0 0.0 0.00 0.00 0.00 87 1016.8
20260505101351 11 36 0.0 0.0 0.00 0.00 0.00 86 1016.8
20260505100848 11 36 0.0 0.0 0.00 0.00 0.00 86 1016.8
20260505100344 11 36 0.0 0.0 0.00 0.00 0.00 85 1016.8
20260505095840 11 29 0.0 0.0 0.00 0.00 0.00 86 1016.8
20260505095338 11 30 0.0 0.0 0.00 0.00 0.00 86 1016.8